This demonstration page uses our WeatherBlox Daily Observations layout. Learn more.

Left ArrowRight Arrow

39.01783, -85.05884

Hourly Observations for October 31, 2016

Temp ( °F °C ) Dew Point ( °F °C ) Humidity (%) Winds ( mph kmh ) Pressure ( in mb ) Visibility ( mi km ) Precip ( " mm )
12:52 am 00:52 Cloudy 55 12.8 47 8.3 74 74 ENE 12 19 30.15 1021 10 16 0.00 0.00
1:52 am 01:52 Cloudy 54 12.2 47 8.3 77 77 ENE 13 20 30.16 1021 10 16 0.00 0.00
2:52 am 02:52 Cloudy 53 11.7 47 8.3 80 80 E 10 17 30.15 1021 10 16 0.00 0.00
3:52 am 03:52 Cloudy 53 11.7 46 7.8 77 77 E 12 19 30.15 1021 10 16 0.00 0.00
4:52 am 04:52 Cloudy 53 11.7 47 8.3 80 80 E 8 13 30.13 1020 10 16 0.00 0.00
5:52 am 05:52 Cloudy 52 11.1 45 7.2 77 77 E 8 13 30.15 1021 10 16 0.00 0.00
6:39 am 06:39 Cloudy 52 11 45 7 77 77 E 9 15 30.18 1022 10 16 0.00 0.00
6:52 am 06:52 Cloudy 52 11.1 45 7.2 77 77 E 12 19 30.15 1021 10 16 0.00 0.00
7:52 am 07:52 Cloudy 52 11.1 45 7.2 77 77 E 7 11 30.16 1022 10 16 0.00 0.00
8:52 am 08:52 Mostly Cloudy 51 10.6 45 7.2 80 80 ESE 9 15 30.17 1022 10 16 0.00 0.00
9:52 am 09:52 Cloudy 52 11.1 45 7.2 77 77 E 13 20 30.18 1022 10 16 0.00 0.00
10:52 am 10:52 Cloudy 53 11.7 45 7.2 74 74 ESE 9 15 30.18 1022 10 16 0.00 0.00
11:52 am 11:52 Cloudy 54 12.2 47 8.3 77 77 E 9 15 30.17 1022 10 16 0.00 0.00
12:52 pm 12:52 Cloudy 56 13.3 48 8.9 75 75 ESE 6 9 30.15 1021 10 16 0.00 0.00
1:30 pm 13:30 Mostly Cloudy 57 14 48 9 72 72 SE 7 11 30.15 1021 10 16 0.00 0.00
1:52 pm 13:52 Mostly Cloudy 60 15.6 49 9.4 67 67 VRB 3 6 30.13 1020 10 16 0.00 0.00
2:52 pm 14:52 Cloudy 61 16.1 50 10 67 67 ESE 3 6 30.11 1020 10 16 0.00 0.00
3:52 pm 15:52 Cloudy 63 17.2 50 10 63 63 ENE 7 11 30.08 1019 10 16 0.00 0.00
4:52 pm 16:52 Mostly Cloudy 62 16.7 50 10 65 65 E 6 9 30.07 1018 10 16 0.00 0.00
5:52 pm 17:52 Cloudy 61 16.1 51 10.6 70 70 E 8 13 30.06 1018 10 16 0.00 0.00
6:52 pm 18:52 Mostly Cloudy 59 15 51 10.6 75 75 E 7 11 30.06 1018 10 16 0.00 0.00
7:52 pm 19:52 Cloudy 57 13.9 51 10.6 81 81 E 6 9 30.07 1018 10 16 0.00 0.00
8:52 pm 20:52 Cloudy 57 13.9 51 10.6 81 81 E 5 7 30.06 1018 10 16 0.00 0.00
9:52 pm 21:52 Cloudy 57 13.9 51 10.6 81 81 E 6 9 30.05 1018 10 16 0.00 0.00
10:52 pm 22:52 Cloudy 57 13.9 51 10.6 81 81 ESE 6 9 30.04 1017 10 16 0.00 0.00
11:52 pm 23:52 Mostly Cloudy 57 13.9 52 11.1 83 83 SE 7 11 30.04 1017 10 16 0.00 0.00

Powered by AerisWeather